Ozark, AL

2:35 AM CST on November 24, 2017 (GMT -0600)
Cairns Army Air Field

Weather History for KOZR - January, 2013

Change the Weather History Date:

Friday, January 4, 2013

  Actual Average Record
Temperature  
Mean Temperature 44 °F -  
Max Temperature 55 °F 59 °F 77 °F (1997)
Min Temperature 34 °F 37 °F 19 °F (2012)
Degree Days  
Heating Degree Days 20    
Moisture  
Dew Point 30 °F    
Average Humidity 60    
Maximum Humidity 82    
Minimum Humidity 30    
Precipitation  
Precipitation 0.00 in - - ()
Sea Level Pressure  
Sea Level Pressure 30.35 in    
Wind  
Wind Speed 6 mph (North)    
Max Wind Speed 8 mph    
Max Gust Speed -    
Visibility 10 miles    
Events      
Averages and records for this station are not official NWS values.
T = Trace of Precipitation, MM = Missing Value Source: NWS Daily Summary

Daily Weather History Graph

Daily Weather History Graph

Search for Another Location

Airport or City:

Trip Planner

Search our weather history database for the weather conditions in past years. The results will help you decide how hot, cold, wet, or windy it might be!

Date:

Astronomy

Jan. 04, 2013 Rise Set
Actual Time 6:42 AM CST 4:53 PM CST
Civil Twilight 6:15 AM CST 5:20 PM CST
Nautical Twilight 5:45 AM CST 5:50 PM CST
Astronomical Twilight 5:16 AM CST 6:20 PM CST
Moon No Moon Rise 10:54 AM CST (1/4)
Length of Visible Light 11h 04m
Length of Day
10h 11m
Waning Gibbous, 55% of the Moon is Illuminated
Jan 4
Waning Gibbous
Jan 4
Last Quarter
Jan 11
New
Jan 18
First Quarter
Jan 26
Full

Hourly Weather History & Observations

Time (CST) Temp. Windchill Dew Point Humidity Pressure Visibility Wind Dir Wind Speed Gust Speed Precip Events Conditions
12:55 AM 36.5 °F 31.8 °F 30.9 °F 80% 30.32 in 10.0 mi North 5.8 mph - N/A   Clear
1:55 AM 36.0 °F 31.1 °F 30.9 °F 82% 30.33 in 10.0 mi NNW 5.8 mph - N/A   Partly Cloudy
2:55 AM 36.0 °F 29.6 °F 30.4 °F 80% 30.31 in 10.0 mi North 8.1 mph - N/A   Clear
3:55 AM 35.6 °F 29.9 °F 30.0 °F 80% 30.32 in 10.0 mi North 6.9 mph - N/A   Partly Cloudy
4:55 AM 34.7 °F 28.1 °F 29.5 °F 81% 30.31 in 10.0 mi North 8.1 mph - N/A   Clear
5:55 AM 34.7 °F 28.1 °F 28.9 °F 79% 30.32 in 10.0 mi North 8.1 mph - N/A   Clear
6:55 AM 34.2 °F 30.0 °F 28.4 °F 79% 30.36 in 10.0 mi North 4.6 mph - N/A   Clear
7:55 AM 37.6 °F 32.3 °F 29.8 °F 74% 30.38 in 10.0 mi NNE 6.9 mph - N/A   Clear
8:55 AM 38.3 °F 32.5 °F 29.5 °F 71% 30.40 in 10.0 mi North 8.1 mph - N/A   Clear
9:55 AM 44.1 °F 39.5 °F 31.1 °F 60% 30.40 in 10.0 mi NNE 8.1 mph - N/A   Clear
10:55 AM 47.3 °F - 32.0 °F 55% 30.39 in 10.0 mi Variable 3.5 mph - N/A   Clear
11:55 AM 51.1 °F - 33.4 °F 51% 30.37 in 10.0 mi NNW 4.6 mph - N/A   Clear
12:55 PM 53.6 °F - 31.1 °F 42% 30.34 in 10.0 mi Variable 6.9 mph - N/A   Clear
1:55 PM 54.5 °F - 30.4 °F 40% 30.32 in 10.0 mi North 8.1 mph - N/A   Clear
2:55 PM 55.9 °F - 30.4 °F 38% 30.32 in 10.0 mi North 6.9 mph - N/A   Clear
3:55 PM 55.8 °F - 24.8 °F 30% 30.32 in 9.0 mi North 5.8 mph - N/A   Clear
4:55 PM 52.9 °F - 25.0 °F 34% 30.33 in 10.0 mi North 5.8 mph - N/A   Clear
5:55 PM 50.4 °F - 26.6 °F 40% 30.35 in 10.0 mi NNW 6.9 mph - N/A   Clear
6:55 PM 49.5 °F - 27.3 °F 42% 30.37 in 10.0 mi North 5.8 mph - N/A   Clear
7:55 PM 44.6 °F 42.2 °F 31.5 °F 60% 30.38 in 10.0 mi NNW 4.6 mph - N/A   Clear
8:55 PM 43.9 °F - 31.3 °F 61% 30.38 in 10.0 mi Calm Calm - N/A   Clear
9:55 PM 42.6 °F - 32.0 °F 66% 30.38 in 10.0 mi Calm Calm - N/A   Clear
10:55 PM 43.7 °F 39.1 °F 28.8 °F 56% 30.36 in 10.0 mi NNE 8.1 mph - N/A   Clear
11:55 PM 42.8 °F 38.0 °F 27.3 °F 54% 30.35 in 10.0 mi NNE 8.1 mph - N/A   Clear